Location: Casco Millpond
(44.5581°N, 87.6111°W)
Time: 23:11:41
(UTC+00:00)

Cosmos 1484 Rocket - Pass Details

Date: 16 January 2026
Orbit: 439 x 467 km, 97.6° (Epoch: 13 February)

Event Time Altitude Azimuth Distance (km) Brightness Sun altitude
Rises 12:28:32 0° 1° (N) 2,455 5.9 -9.7°
Reaches altitude 10° 12:30:45 10° 348° (NNW) 1,583 4.9 -9.3°
Maximum altitude 12:33:38 26° 290° (WNW) 922 3.4 -8.8°
Drops below altitude 10° 12:36:31 10° 232° (SW) 1,586 4.9 -8.3°
Sets 12:38:45 0° 220° (SW) 2,460 6.0 -8.0°
